Year,Month,Day,Hour,Minute,Value (Times are PST for temperature in C)
2010,04,08,00,00,7.50
2010,04,08,00,01,7.50
2010,04,08,00,02,7.50
2010,04,08,00,03,7.50
2010,04,08,00,04,7.50
2010,04,08,00,05,7.50
2010,04,08,00,06,7.50
2010,04,08,00,07,7.40
2010,04,08,00,08,7.40
2010,04,08,00,09,7.40
2010,04,08,00,10,7.40
2010,04,08,00,11,7.40
2010,04,08,00,12,7.40
2010,04,08,00,13,7.40
2010,04,08,00,14,7.40
2010,04,08,00,15,7.30
2010,04,08,00,16,7.20
2010,04,08,00,17,7.00
2010,04,08,00,18,6.70
2010,04,08,00,19,6.30
2010,04,08,00,20,5.90
2010,04,08,00,21,5.60
2010,04,08,00,22,5.20
2010,04,08,00,23,4.90
2010,04,08,00,24,4.60
2010,04,08,00,25,4.20
2010,04,08,00,26,3.90
2010,04,08,00,27,3.70
2010,04,08,00,28,3.40
2010,04,08,00,29,3.20
2010,04,08,00,30,3.00
2010,04,08,00,31,2.90
2010,04,08,00,32,2.80
2010,04,08,00,33,2.70
2010,04,08,00,34,2.60
2010,04,08,00,35,2.60
2010,04,08,00,36,2.50
2010,04,08,00,37,2.50
2010,04,08,00,38,2.50
2010,04,08,00,39,2.50
2010,04,08,00,40,2.50
2010,04,08,00,41,2.50
2010,04,08,00,42,2.50
2010,04,08,00,43,2.50
2010,04,08,00,44,2.50
2010,04,08,00,45,2.40
2010,04,08,00,46,2.40
2010,04,08,00,47,2.40
2010,04,08,00,48,2.40
2010,04,08,00,49,2.40
2010,04,08,00,50,2.30
2010,04,08,00,51,2.30
2010,04,08,00,52,2.30
2010,04,08,00,53,2.30
2010,04,08,00,54,2.30
2010,04,08,00,55,2.30
2010,04,08,00,56,2.20
2010,04,08,00,57,2.20
2010,04,08,00,58,2.20
2010,04,08,00,59,2.20
2010,04,08,01,00,2.10
2010,04,08,01,01,2.10
2010,04,08,01,02,2.10
2010,04,08,01,03,2.10
2010,04,08,01,04,2.10
2010,04,08,01,05,2.10
2010,04,08,01,06,2.10
2010,04,08,01,07,2.10
2010,04,08,01,08,2.10
2010,04,08,01,09,2.10
2010,04,08,01,10,2.10
2010,04,08,01,11,2.10
2010,04,08,01,12,2.10
2010,04,08,01,13,2.20
2010,04,08,01,14,2.20
2010,04,08,01,15,2.10
2010,04,08,01,16,2.20
2010,04,08,01,17,2.20
2010,04,08,01,18,2.20
2010,04,08,01,19,2.20
2010,04,08,01,20,2.20
2010,04,08,01,21,2.20
2010,04,08,01,22,2.20
2010,04,08,01,23,2.30
2010,04,08,01,24,2.30
2010,04,08,01,25,2.40
2010,04,08,01,26,2.50
2010,04,08,01,27,2.60
2010,04,08,01,28,2.80
2010,04,08,01,29,2.90
2010,04,08,01,30,3.00
2010,04,08,01,31,3.10
2010,04,08,01,32,3.20
2010,04,08,01,33,3.30
2010,04,08,01,34,3.30
2010,04,08,01,35,3.30
2010,04,08,01,36,3.40
2010,04,08,01,37,3.40
2010,04,08,01,38,3.40
2010,04,08,01,39,3.40
2010,04,08,01,40,3.30
2010,04,08,01,41,3.30
2010,04,08,01,42,3.20
2010,04,08,01,43,3.10
2010,04,08,01,44,3.10
2010,04,08,01,45,3.00
2010,04,08,01,46,2.90
2010,04,08,01,47,2.90
2010,04,08,01,48,2.80
2010,04,08,01,49,2.80
2010,04,08,01,50,2.70
2010,04,08,01,51,2.70
2010,04,08,01,52,2.60
2010,04,08,01,53,2.60
2010,04,08,01,54,2.60
2010,04,08,01,55,2.50
2010,04,08,01,56,2.50
2010,04,08,01,57,2.50
2010,04,08,01,58,2.40
2010,04,08,01,59,2.40
2010,04,08,02,00,2.40
2010,04,08,02,01,2.40
2010,04,08,02,02,2.40
2010,04,08,02,03,2.40
2010,04,08,02,04,2.50
2010,04,08,02,05,2.50
2010,04,08,02,06,2.50
2010,04,08,02,07,2.50
2010,04,08,02,08,2.50
2010,04,08,02,09,2.60
2010,04,08,02,10,2.60
2010,04,08,02,11,2.60
2010,04,08,02,12,2.60
2010,04,08,02,13,2.60
2010,04,08,02,14,2.60
2010,04,08,02,15,2.60
2010,04,08,02,16,2.60
2010,04,08,02,17,2.60
2010,04,08,02,18,2.60
2010,04,08,02,19,2.70
2010,04,08,02,20,2.70
2010,04,08,02,21,2.70
2010,04,08,02,22,2.70
2010,04,08,02,23,2.70
2010,04,08,02,24,2.70
2010,04,08,02,25,2.70
2010,04,08,02,26,2.80
2010,04,08,02,27,2.80
2010,04,08,02,28,2.80
2010,04,08,02,29,2.80
2010,04,08,02,30,2.80
2010,04,08,02,31,2.80
2010,04,08,02,32,2.90
2010,04,08,02,33,2.90
2010,04,08,02,34,2.90
2010,04,08,02,35,2.90
2010,04,08,02,36,2.90
2010,04,08,02,37,2.90
2010,04,08,02,38,3.00
2010,04,08,02,39,3.00
2010,04,08,02,40,3.00
2010,04,08,02,41,3.00
2010,04,08,02,42,3.10
2010,04,08,02,43,3.10
2010,04,08,02,44,3.10
2010,04,08,02,45,3.10
2010,04,08,02,46,3.20
2010,04,08,02,47,3.20
2010,04,08,02,48,3.20
2010,04,08,02,49,3.20
2010,04,08,02,50,3.30
2010,04,08,02,51,3.30
2010,04,08,02,52,3.30
2010,04,08,02,53,3.30
2010,04,08,02,54,3.30
2010,04,08,02,55,3.30
2010,04,08,02,56,3.30
2010,04,08,02,57,3.30
2010,04,08,02,58,3.30
2010,04,08,02,59,3.40
2010,04,08,03,00,3.40
2010,04,08,03,01,3.40
2010,04,08,03,02,3.40
2010,04,08,03,03,3.40
2010,04,08,03,04,3.50
2010,04,08,03,05,3.50
2010,04,08,03,06,3.50
2010,04,08,03,07,3.50
2010,04,08,03,08,3.50
2010,04,08,03,09,3.50
2010,04,08,03,10,3.60
2010,04,08,03,11,3.60
2010,04,08,03,12,3.60
2010,04,08,03,13,3.60
2010,04,08,03,14,3.60
2010,04,08,03,15,3.60
2010,04,08,03,16,3.60
2010,04,08,03,17,3.60
2010,04,08,03,18,3.60
2010,04,08,03,19,3.60
2010,04,08,03,20,3.60
2010,04,08,03,21,3.60
2010,04,08,03,22,3.60
2010,04,08,03,23,3.70
2010,04,08,03,24,3.70
2010,04,08,03,25,3.70
2010,04,08,03,26,3.70
2010,04,08,03,27,3.70
2010,04,08,03,28,3.70
2010,04,08,03,29,3.70
2010,04,08,03,30,3.70
2010,04,08,03,31,3.70
2010,04,08,03,32,3.70
2010,04,08,03,33,3.70
2010,04,08,03,34,3.70
2010,04,08,03,35,3.70
2010,04,08,03,36,3.70
2010,04,08,03,37,3.80
2010,04,08,03,38,3.80
2010,04,08,03,39,3.80
2010,04,08,03,40,3.80
2010,04,08,03,41,3.80
2010,04,08,03,42,3.80
2010,04,08,03,43,3.80
2010,04,08,03,44,3.80
2010,04,08,03,45,3.80
2010,04,08,03,46,3.80
2010,04,08,03,47,3.80
2010,04,08,03,48,3.80
2010,04,08,03,49,3.80
2010,04,08,03,50,3.80
2010,04,08,03,51,3.80
2010,04,08,03,52,3.80
2010,04,08,03,53,3.80
2010,04,08,03,54,3.80
2010,04,08,03,55,3.80
2010,04,08,03,56,3.80
2010,04,08,03,57,3.80
2010,04,08,03,58,3.80
2010,04,08,03,59,3.90
2010,04,08,04,00,3.90
2010,04,08,04,01,3.90
2010,04,08,04,02,3.80
2010,04,08,04,03,3.90
2010,04,08,04,04,3.90
2010,04,08,04,05,3.90
2010,04,08,04,06,4.00
2010,04,08,04,07,4.00
2010,04,08,04,08,4.10
2010,04,08,04,09,4.10
2010,04,08,04,10,4.10
2010,04,08,04,11,4.10
2010,04,08,04,12,4.10
2010,04,08,04,13,4.10
2010,04,08,04,14,4.10
2010,04,08,04,15,4.10
2010,04,08,04,16,4.10
2010,04,08,04,17,4.10
2010,04,08,04,18,4.00
2010,04,08,04,19,4.00
2010,04,08,04,20,3.90
2010,04,08,04,21,3.90
2010,04,08,04,22,3.90
2010,04,08,04,23,3.90
2010,04,08,04,24,3.90
2010,04,08,04,25,3.90
2010,04,08,04,26,3.80
2010,04,08,04,27,3.80
2010,04,08,04,28,3.80
2010,04,08,04,29,3.80
2010,04,08,04,30,3.80
2010,04,08,04,31,3.70
2010,04,08,04,32,3.70
2010,04,08,04,33,3.70
2010,04,08,04,34,3.70
2010,04,08,04,35,3.60
2010,04,08,04,36,3.60
2010,04,08,04,37,3.60
2010,04,08,04,38,3.60
2010,04,08,04,39,3.60
2010,04,08,04,40,3.50
2010,04,08,04,41,3.50
2010,04,08,04,42,3.50
2010,04,08,04,43,3.50
2010,04,08,04,44,3.50
2010,04,08,04,45,3.50
2010,04,08,04,46,3.50
2010,04,08,04,47,3.50
2010,04,08,04,48,3.40
2010,04,08,04,49,3.40
2010,04,08,04,50,3.40
2010,04,08,04,51,3.40
2010,04,08,04,52,3.40
2010,04,08,04,53,3.40
2010,04,08,04,54,3.40
2010,04,08,04,55,3.40
2010,04,08,04,56,3.40
2010,04,08,04,57,3.40
2010,04,08,04,58,3.40
2010,04,08,04,59,3.50
2010,04,08,05,00,3.50
2010,04,08,05,01,3.50
2010,04,08,05,02,3.50
2010,04,08,05,03,3.40
2010,04,08,05,04,3.40
2010,04,08,05,05,3.40
2010,04,08,05,06,3.40
2010,04,08,05,07,3.40
2010,04,08,05,08,3.40
2010,04,08,05,09,3.30
2010,04,08,05,10,3.30
2010,04,08,05,11,3.30
2010,04,08,05,12,3.30
2010,04,08,05,13,3.30
2010,04,08,05,14,3.30
2010,04,08,05,15,3.30
2010,04,08,05,16,3.30
2010,04,08,05,17,3.30
2010,04,08,05,18,3.30
2010,04,08,05,19,3.30
2010,04,08,05,20,3.30
2010,04,08,05,21,3.30
2010,04,08,05,22,3.30
2010,04,08,05,23,3.30
2010,04,08,05,24,3.30
2010,04,08,05,25,3.30
2010,04,08,05,26,3.30
2010,04,08,05,27,3.30
2010,04,08,05,28,3.30
2010,04,08,05,29,3.30
2010,04,08,05,30,3.40
2010,04,08,05,31,3.40
2010,04,08,05,32,3.40
2010,04,08,05,33,3.50
2010,04,08,05,34,3.50
2010,04,08,05,35,3.50
2010,04,08,05,36,3.50
2010,04,08,05,37,3.60
2010,04,08,05,38,3.60
2010,04,08,05,39,3.60
2010,04,08,05,40,3.60
2010,04,08,05,41,3.60
2010,04,08,05,42,3.60
2010,04,08,05,43,3.60
2010,04,08,05,44,3.70
2010,04,08,05,45,3.70
2010,04,08,05,46,3.70
2010,04,08,05,47,3.70
2010,04,08,05,48,3.70
2010,04,08,05,49,3.70
2010,04,08,05,50,3.70
2010,04,08,05,51,3.70
2010,04,08,05,52,3.70
2010,04,08,05,53,3.70
2010,04,08,05,54,3.70
2010,04,08,05,55,3.70
2010,04,08,05,56,3.70
2010,04,08,05,57,3.70
2010,04,08,05,58,3.60
2010,04,08,05,59,3.60
2010,04,08,06,00,3.60
2010,04,08,06,01,3.60
2010,04,08,06,02,3.50
2010,04,08,06,03,3.50
2010,04,08,06,04,3.50
2010,04,08,06,05,3.40
2010,04,08,06,06,3.40
2010,04,08,06,07,3.40
2010,04,08,06,08,3.40
2010,04,08,06,09,3.40
2010,04,08,06,10,3.40
2010,04,08,06,11,3.40
2010,04,08,06,12,3.40
2010,04,08,06,13,3.40
2010,04,08,06,14,3.40
2010,04,08,06,15,3.30
2010,04,08,06,16,3.30
2010,04,08,06,17,3.30
2010,04,08,06,18,3.30
2010,04,08,06,19,3.30
2010,04,08,06,20,3.40
2010,04,08,06,21,3.40
2010,04,08,06,22,3.40
2010,04,08,06,23,3.40
2010,04,08,06,24,3.50
2010,04,08,06,25,3.50
2010,04,08,06,26,3.50
2010,04,08,06,27,3.50
2010,04,08,06,28,3.50
2010,04,08,06,29,3.50
2010,04,08,06,30,3.50
2010,04,08,06,31,3.40
2010,04,08,06,32,3.40
2010,04,08,06,33,3.40
2010,04,08,06,34,3.30
2010,04,08,06,35,3.30
2010,04,08,06,36,3.30
2010,04,08,06,37,3.30
2010,04,08,06,38,3.30
2010,04,08,06,39,3.30
2010,04,08,06,40,3.30
2010,04,08,06,41,3.30
2010,04,08,06,42,3.30
2010,04,08,06,43,3.20
2010,04,08,06,44,3.20
2010,04,08,06,45,3.20
2010,04,08,06,46,3.20
2010,04,08,06,47,3.20
2010,04,08,06,48,3.20
2010,04,08,06,49,3.20
2010,04,08,06,50,3.20
2010,04,08,06,51,3.20
2010,04,08,06,52,3.20
2010,04,08,06,53,3.20
2010,04,08,06,54,3.20
2010,04,08,06,55,3.30
2010,04,08,06,56,3.30
2010,04,08,06,57,3.30
2010,04,08,06,58,3.30
2010,04,08,06,59,3.30
2010,04,08,07,00,3.30
2010,04,08,07,01,3.30
2010,04,08,07,02,3.30
2010,04,08,07,03,3.30
2010,04,08,07,04,3.30
2010,04,08,07,05,3.30
2010,04,08,07,06,3.30
2010,04,08,07,07,3.30
2010,04,08,07,08,3.30
2010,04,08,07,09,3.30
2010,04,08,07,10,3.30
2010,04,08,07,11,3.30
2010,04,08,07,12,3.30
2010,04,08,07,13,3.30
2010,04,08,07,14,3.20
2010,04,08,07,15,3.20
2010,04,08,07,16,3.20
2010,04,08,07,17,3.20
2010,04,08,07,18,3.20
2010,04,08,07,19,3.20
2010,04,08,07,20,3.20
2010,04,08,07,21,3.20
2010,04,08,07,22,3.20
2010,04,08,07,23,3.20
2010,04,08,07,24,3.30
2010,04,08,07,25,3.30
2010,04,08,07,26,3.30
2010,04,08,07,27,3.40
2010,04,08,07,28,3.40
2010,04,08,07,29,3.40
2010,04,08,07,30,3.50
2010,04,08,07,31,3.50
2010,04,08,07,32,3.60
2010,04,08,07,33,3.60
2010,04,08,07,34,3.70
2010,04,08,07,35,3.70
2010,04,08,07,36,3.80
2010,04,08,07,37,3.80
2010,04,08,07,38,3.90
2010,04,08,07,39,3.90
2010,04,08,07,40,4.00
2010,04,08,07,41,4.00
2010,04,08,07,42,4.10
2010,04,08,07,43,4.20
2010,04,08,07,44,4.20
2010,04,08,07,45,4.30
2010,04,08,07,46,4.30
2010,04,08,07,47,4.40
2010,04,08,07,48,4.50
2010,04,08,07,49,4.50
2010,04,08,07,50,4.60
2010,04,08,07,51,4.60
2010,04,08,07,52,4.70
2010,04,08,07,53,4.80
2010,04,08,07,54,4.80
2010,04,08,07,55,4.90
2010,04,08,07,56,5.00
2010,04,08,07,57,5.00
2010,04,08,07,58,5.10
2010,04,08,07,59,5.20
2010,04,08,08,00,5.30
2010,04,08,08,01,5.30
2010,04,08,08,02,5.30
2010,04,08,08,03,5.30
2010,04,08,08,04,5.30
2010,04,08,08,05,5.40
2010,04,08,08,06,5.40
2010,04,08,08,07,5.50
2010,04,08,08,08,5.50
2010,04,08,08,09,5.60
2010,04,08,08,10,5.60
2010,04,08,08,11,5.60
2010,04,08,08,12,5.70
2010,04,08,08,13,5.70
2010,04,08,08,14,5.70
2010,04,08,08,15,5.80
2010,04,08,08,16,5.80
2010,04,08,08,17,5.80
2010,04,08,08,18,5.90
2010,04,08,08,19,5.90
2010,04,08,08,20,5.90
2010,04,08,08,21,6.00
2010,04,08,08,22,6.00
2010,04,08,08,23,6.00
2010,04,08,08,24,6.00
2010,04,08,08,25,6.10
2010,04,08,08,26,6.10
2010,04,08,08,27,6.10
2010,04,08,08,28,6.10
2010,04,08,08,29,6.10
2010,04,08,08,30,6.10
2010,04,08,08,31,6.20
2010,04,08,08,32,6.20
2010,04,08,08,33,6.20
2010,04,08,08,34,6.30
2010,04,08,08,35,6.30
2010,04,08,08,36,6.30
2010,04,08,08,37,6.30
2010,04,08,08,38,6.40
2010,04,08,08,39,6.40
2010,04,08,08,40,6.40
2010,04,08,08,41,6.40
2010,04,08,08,42,6.40
2010,04,08,08,43,6.40
2010,04,08,08,44,6.40
2010,04,08,08,45,6.40
2010,04,08,08,46,6.40
2010,04,08,08,47,6.50
2010,04,08,08,48,6.50
2010,04,08,08,49,6.50
2010,04,08,08,50,6.60
2010,04,08,08,51,6.60
2010,04,08,08,52,6.60
2010,04,08,08,53,6.60
2010,04,08,08,54,6.70
2010,04,08,08,55,6.70
2010,04,08,08,56,6.70
2010,04,08,08,57,6.70
2010,04,08,08,58,6.70
2010,04,08,08,59,6.70
2010,04,08,09,00,6.80
2010,04,08,09,01,6.80
2010,04,08,09,02,6.80
2010,04,08,09,03,6.80
2010,04,08,09,04,6.80
2010,04,08,09,05,6.80
2010,04,08,09,06,6.80
2010,04,08,09,07,6.80
2010,04,08,09,08,6.90
2010,04,08,09,09,6.90
2010,04,08,09,10,7.00
2010,04,08,09,11,7.10
2010,04,08,09,12,7.20
2010,04,08,09,13,7.20
2010,04,08,09,14,7.30
2010,04,08,09,15,7.30
2010,04,08,09,16,7.30
2010,04,08,09,17,7.30
2010,04,08,09,18,7.30
2010,04,08,09,19,7.30
2010,04,08,09,20,7.30
2010,04,08,09,21,7.30
2010,04,08,09,22,7.30
2010,04,08,09,23,7.30
2010,04,08,09,24,7.30
2010,04,08,09,25,7.40
2010,04,08,09,26,7.40
2010,04,08,09,27,7.50
2010,04,08,09,28,7.50
2010,04,08,09,29,7.60
2010,04,08,09,30,7.60
2010,04,08,09,31,7.60
2010,04,08,09,32,7.60
2010,04,08,09,33,7.60
2010,04,08,09,34,7.60
2010,04,08,09,35,7.60
2010,04,08,09,36,7.60
2010,04,08,09,37,7.60
2010,04,08,09,38,7.70
2010,04,08,09,39,7.70
2010,04,08,09,40,7.70
2010,04,08,09,41,7.70
2010,04,08,09,42,7.70
2010,04,08,09,43,7.70
2010,04,08,09,44,7.80
2010,04,08,09,45,7.80
2010,04,08,09,46,7.80
2010,04,08,09,47,7.80
2010,04,08,09,48,7.80
2010,04,08,09,49,7.90
2010,04,08,09,50,7.90
2010,04,08,09,51,7.90
2010,04,08,09,52,7.90
2010,04,08,09,53,8.00
2010,04,08,09,54,8.00
2010,04,08,09,55,8.00
2010,04,08,09,56,7.90
2010,04,08,09,57,7.90
2010,04,08,09,58,8.00
2010,04,08,09,59,8.00
2010,04,08,10,00,8.10
2010,04,08,10,01,8.00
2010,04,08,10,02,8.00
2010,04,08,10,03,8.00
2010,04,08,10,04,8.00
2010,04,08,10,05,8.10
2010,04,08,10,06,8.10
2010,04,08,10,07,8.20
2010,04,08,10,08,8.20
2010,04,08,10,09,8.30
2010,04,08,10,10,8.30
2010,04,08,10,11,8.30
2010,04,08,10,12,8.30
2010,04,08,10,13,8.30
2010,04,08,10,14,8.30
2010,04,08,10,15,8.30
2010,04,08,10,16,8.30
2010,04,08,10,17,8.30
2010,04,08,10,18,8.40
2010,04,08,10,19,8.40
2010,04,08,10,20,8.50
2010,04,08,10,21,8.50
2010,04,08,10,22,8.50
2010,04,08,10,23,8.50
2010,04,08,10,24,8.40
2010,04,08,10,25,8.40
2010,04,08,10,26,8.50
2010,04,08,10,27,8.50
2010,04,08,10,28,8.50
2010,04,08,10,29,8.60
2010,04,08,10,30,8.60
2010,04,08,10,31,8.60
2010,04,08,10,32,8.60
2010,04,08,10,33,8.60
2010,04,08,10,34,8.60
2010,04,08,10,35,8.60
2010,04,08,10,36,8.60
2010,04,08,10,37,8.60
2010,04,08,10,38,8.60
2010,04,08,10,39,8.50
2010,04,08,10,40,8.50
2010,04,08,10,41,8.50
2010,04,08,10,42,8.50
2010,04,08,10,43,8.40
2010,04,08,10,44,8.30
2010,04,08,10,45,8.30
2010,04,08,10,46,8.30
2010,04,08,10,47,8.30
2010,04,08,10,48,8.40
2010,04,08,10,49,8.40
2010,04,08,10,50,8.40
2010,04,08,10,51,8.40
2010,04,08,10,52,8.40
2010,04,08,10,53,8.40
2010,04,08,10,54,8.50
2010,04,08,10,55,8.50
2010,04,08,10,56,8.60
2010,04,08,10,57,8.70
2010,04,08,10,58,8.80
2010,04,08,10,59,8.80
2010,04,08,11,00,8.80
2010,04,08,11,01,8.80
2010,04,08,11,02,8.80
2010,04,08,11,03,8.70
2010,04,08,11,04,8.70
2010,04,08,11,05,8.70
2010,04,08,11,06,8.70
2010,04,08,11,07,8.70
2010,04,08,11,08,8.60
2010,04,08,11,09,8.60
2010,04,08,11,10,8.60
2010,04,08,11,11,8.60
2010,04,08,11,12,8.60
2010,04,08,11,13,8.60
2010,04,08,11,14,8.60
2010,04,08,11,15,8.60
2010,04,08,11,16,8.60
2010,04,08,11,17,8.60
2010,04,08,11,18,8.60
2010,04,08,11,19,8.60
2010,04,08,11,20,8.60
2010,04,08,11,21,8.60
2010,04,08,11,22,8.60
2010,04,08,11,23,8.60
2010,04,08,11,24,8.70
2010,04,08,11,25,8.70
2010,04,08,11,26,8.70
2010,04,08,11,27,8.70
2010,04,08,11,28,8.80
2010,04,08,11,29,8.90
2010,04,08,11,30,8.90
2010,04,08,11,31,9.00
2010,04,08,11,32,9.10
2010,04,08,11,33,9.10
2010,04,08,11,34,9.20
2010,04,08,11,35,9.20
2010,04,08,11,36,9.20
2010,04,08,11,37,9.20
2010,04,08,11,38,9.10
2010,04,08,11,39,9.10
2010,04,08,11,40,9.00
2010,04,08,11,41,8.90
2010,04,08,11,42,8.90
2010,04,08,11,43,8.90
2010,04,08,11,44,8.80
2010,04,08,11,45,8.80
2010,04,08,11,46,8.80
2010,04,08,11,47,8.90
2010,04,08,11,48,9.00
2010,04,08,11,49,9.00
2010,04,08,11,50,9.10
2010,04,08,11,51,9.10
2010,04,08,11,52,9.20
2010,04,08,11,53,9.20
2010,04,08,11,54,9.20
2010,04,08,11,55,9.20
2010,04,08,11,56,9.20
2010,04,08,11,57,9.20
2010,04,08,11,58,9.30
2010,04,08,11,59,9.30
2010,04,08,12,00,9.30
2010,04,08,12,01,9.40
2010,04,08,12,02,9.40
2010,04,08,12,03,9.40
2010,04,08,12,04,9.40
2010,04,08,12,05,9.40
2010,04,08,12,06,9.50
2010,04,08,12,07,9.50
2010,04,08,12,08,9.60
2010,04,08,12,09,9.50
2010,04,08,12,10,9.50
2010,04,08,12,11,9.40
2010,04,08,12,12,9.40
2010,04,08,12,13,9.40
2010,04,08,12,14,9.40
2010,04,08,12,15,9.40
2010,04,08,12,16,9.50
2010,04,08,12,17,9.50
2010,04,08,12,18,9.60
2010,04,08,12,19,9.60
2010,04,08,12,20,9.70
2010,04,08,12,21,9.80
2010,04,08,12,22,9.80
2010,04,08,12,23,9.90
2010,04,08,12,24,9.90
2010,04,08,12,25,9.90
2010,04,08,12,26,9.90
2010,04,08,12,27,10.00
2010,04,08,12,28,10.00
2010,04,08,12,29,10.10
2010,04,08,12,30,10.10
2010,04,08,12,31,10.10
2010,04,08,12,32,10.00
2010,04,08,12,33,10.00
2010,04,08,12,34,9.90
2010,04,08,12,35,9.90
2010,04,08,12,36,9.90
2010,04,08,12,37,9.90
2010,04,08,12,38,9.80
2010,04,08,12,39,9.90
2010,04,08,12,40,9.90
2010,04,08,12,41,9.90
2010,04,08,12,42,9.90
2010,04,08,12,43,9.90
2010,04,08,12,44,9.90
2010,04,08,12,45,9.90
2010,04,08,12,46,9.80
2010,04,08,12,47,9.80
2010,04,08,12,48,9.70
2010,04,08,12,49,9.60
2010,04,08,12,50,9.60
2010,04,08,12,51,9.50
2010,04,08,12,52,9.40
2010,04,08,12,53,9.40
2010,04,08,12,54,9.30
2010,04,08,12,55,9.30
2010,04,08,12,56,9.30
2010,04,08,12,57,9.20
2010,04,08,12,58,9.20
2010,04,08,12,59,9.20
2010,04,08,13,00,9.20
2010,04,08,13,01,9.20
2010,04,08,13,02,9.20
2010,04,08,13,03,9.10
2010,04,08,13,04,9.10
2010,04,08,13,05,9.10
2010,04,08,13,06,9.20
2010,04,08,13,07,9.20
2010,04,08,13,08,9.20
2010,04,08,13,09,9.30
2010,04,08,13,10,9.30
2010,04,08,13,11,9.30
2010,04,08,13,12,9.40
2010,04,08,13,13,9.50
2010,04,08,13,14,9.50
2010,04,08,13,15,9.60
2010,04,08,13,16,9.60
2010,04,08,13,17,9.60
2010,04,08,13,18,9.60
2010,04,08,13,19,9.50
2010,04,08,13,20,9.50
2010,04,08,13,21,9.30
2010,04,08,13,22,9.30
2010,04,08,13,23,9.30
2010,04,08,13,24,9.30
2010,04,08,13,25,9.30
2010,04,08,13,26,9.30
2010,04,08,13,27,9.30
2010,04,08,13,28,9.20
2010,04,08,13,29,9.20
2010,04,08,13,30,9.30
2010,04,08,13,31,9.30
2010,04,08,13,32,9.30
2010,04,08,13,33,9.40
2010,04,08,13,34,9.50
2010,04,08,13,35,9.60
2010,04,08,13,36,9.70
2010,04,08,13,37,9.70
2010,04,08,13,38,9.70
2010,04,08,13,39,9.80
2010,04,08,13,40,9.80
2010,04,08,13,41,9.90
2010,04,08,13,42,10.00
2010,04,08,13,43,10.10
2010,04,08,13,44,10.10
2010,04,08,13,45,10.20
2010,04,08,13,46,10.20
2010,04,08,13,47,10.20
2010,04,08,13,48,10.20
2010,04,08,13,49,10.20
2010,04,08,13,50,10.20
2010,04,08,13,51,10.20
2010,04,08,13,52,10.20
2010,04,08,13,53,10.20
2010,04,08,13,54,10.20
2010,04,08,13,55,10.10
2010,04,08,13,56,10.00
2010,04,08,13,57,10.00
2010,04,08,13,58,9.90
2010,04,08,13,59,9.90
2010,04,08,14,00,9.90
2010,04,08,14,01,9.80
2010,04,08,14,02,9.80
2010,04,08,14,03,9.80
2010,04,08,14,04,9.90
2010,04,08,14,05,9.90
2010,04,08,14,06,9.90
2010,04,08,14,07,9.90
2010,04,08,14,08,9.90
2010,04,08,14,09,9.80
2010,04,08,14,10,9.80
2010,04,08,14,11,9.70
2010,04,08,14,12,9.70
2010,04,08,14,13,9.60
2010,04,08,14,14,9.60
2010,04,08,14,15,9.60
2010,04,08,14,16,9.60
2010,04,08,14,17,9.60
2010,04,08,14,18,9.60
2010,04,08,14,19,9.60
2010,04,08,14,20,9.60
2010,04,08,14,21,9.60
2010,04,08,14,22,9.60
2010,04,08,14,23,9.60
2010,04,08,14,24,9.60
2010,04,08,14,25,9.60
2010,04,08,14,26,9.60
2010,04,08,14,27,9.60
2010,04,08,14,28,9.60
2010,04,08,14,29,9.60
2010,04,08,14,30,9.70
2010,04,08,14,31,9.70
2010,04,08,14,32,9.70
2010,04,08,14,33,9.80
2010,04,08,14,34,9.90
2010,04,08,14,35,9.90
2010,04,08,14,36,10.00
2010,04,08,14,37,10.00
2010,04,08,14,38,10.00
2010,04,08,14,39,10.00
2010,04,08,14,40,10.00
2010,04,08,14,41,9.90
2010,04,08,14,42,9.90
2010,04,08,14,43,9.80
2010,04,08,14,44,9.80
2010,04,08,14,45,9.80
2010,04,08,14,46,9.80
2010,04,08,14,47,9.80
2010,04,08,14,48,9.80
2010,04,08,14,49,9.90
2010,04,08,14,50,10.00
2010,04,08,14,51,10.00
2010,04,08,14,52,10.10
2010,04,08,14,53,10.10
2010,04,08,14,54,10.10
2010,04,08,14,55,10.10
2010,04,08,14,56,10.10
2010,04,08,14,57,10.10
2010,04,08,14,58,10.10
2010,04,08,14,59,10.10
2010,04,08,15,00,10.10
2010,04,08,15,01,10.10
2010,04,08,15,02,10.20
2010,04,08,15,03,10.20
2010,04,08,15,04,10.30
2010,04,08,15,05,10.30
2010,04,08,15,06,10.40
2010,04,08,15,07,10.50
2010,04,08,15,08,10.60
2010,04,08,15,09,10.60
2010,04,08,15,10,10.60
2010,04,08,15,11,10.60
2010,04,08,15,12,10.50
2010,04,08,15,13,10.50
2010,04,08,15,14,10.40
2010,04,08,15,15,10.40
2010,04,08,15,16,10.30
2010,04,08,15,17,10.30
2010,04,08,15,18,10.20
2010,04,08,15,19,10.20
2010,04,08,15,20,10.20
2010,04,08,15,21,10.10
2010,04,08,15,22,10.10
2010,04,08,15,23,10.10
2010,04,08,15,24,10.20
2010,04,08,15,25,10.20
2010,04,08,15,26,10.20
2010,04,08,15,27,10.30
2010,04,08,15,28,10.30
2010,04,08,15,29,10.40
2010,04,08,15,30,10.50
2010,04,08,15,31,10.50
2010,04,08,15,32,10.60
2010,04,08,15,33,10.70
2010,04,08,15,34,10.70
2010,04,08,15,35,10.70
2010,04,08,15,36,10.70
2010,04,08,15,37,10.70
2010,04,08,15,38,10.70
2010,04,08,15,39,10.60
2010,04,08,15,40,10.50
2010,04,08,15,41,10.40
2010,04,08,15,42,10.40
2010,04,08,15,43,10.30
2010,04,08,15,44,10.30
2010,04,08,15,45,10.30
2010,04,08,15,46,10.30
2010,04,08,15,47,10.20
2010,04,08,15,48,10.20
2010,04,08,15,49,10.10
2010,04,08,15,50,10.00
2010,04,08,15,51,10.00
2010,04,08,15,52,9.90
2010,04,08,15,53,9.90
2010,04,08,15,54,9.90
2010,04,08,15,55,9.80
2010,04,08,15,56,9.80
2010,04,08,15,57,9.80
2010,04,08,15,58,9.80
2010,04,08,15,59,9.80
2010,04,08,16,00,9.80
2010,04,08,16,01,9.80
2010,04,08,16,02,9.70
2010,04,08,16,03,9.70
2010,04,08,16,04,9.80
2010,04,08,16,05,9.80
2010,04,08,16,06,9.80
2010,04,08,16,07,9.80
2010,04,08,16,08,9.80
2010,04,08,16,09,9.80
2010,04,08,16,10,9.80
2010,04,08,16,11,9.80
2010,04,08,16,12,9.90
2010,04,08,16,13,10.00
2010,04,08,16,14,10.00
2010,04,08,16,15,10.00
2010,04,08,16,16,10.10
2010,04,08,16,17,10.10
2010,04,08,16,18,10.10
2010,04,08,16,19,10.10
2010,04,08,16,20,10.10
2010,04,08,16,21,10.00
2010,04,08,16,22,10.00
2010,04,08,16,23,10.00
2010,04,08,16,24,10.10
2010,04,08,16,25,10.10
2010,04,08,16,26,10.20
2010,04,08,16,27,10.20
2010,04,08,16,28,10.20
2010,04,08,16,29,10.30
2010,04,08,16,30,10.30
2010,04,08,16,31,10.30
2010,04,08,16,32,10.40
2010,04,08,16,33,10.50
2010,04,08,16,34,10.60
2010,04,08,16,35,10.60
2010,04,08,16,36,10.70
2010,04,08,16,37,10.60
2010,04,08,16,38,10.70
2010,04,08,16,39,10.70
2010,04,08,16,40,10.70
2010,04,08,16,41,10.70
2010,04,08,16,42,10.70
2010,04,08,16,43,10.70
2010,04,08,16,44,10.70
2010,04,08,16,45,10.70
2010,04,08,16,46,10.70
2010,04,08,16,47,10.70
2010,04,08,16,48,10.70
2010,04,08,16,49,10.70
2010,04,08,16,50,10.80
2010,04,08,16,51,10.80
2010,04,08,16,52,10.80
2010,04,08,16,53,10.80
2010,04,08,16,54,10.80
2010,04,08,16,55,10.80
2010,04,08,16,56,10.80
2010,04,08,16,57,10.80
2010,04,08,16,58,10.80
2010,04,08,16,59,10.70
2010,04,08,17,00,10.80
2010,04,08,17,01,10.80
2010,04,08,17,02,10.80
2010,04,08,17,03,10.90
2010,04,08,17,04,10.90
2010,04,08,17,05,10.90
2010,04,08,17,06,10.90
2010,04,08,17,07,10.80
2010,04,08,17,08,10.70
2010,04,08,17,09,10.70
2010,04,08,17,10,10.70
2010,04,08,17,11,10.70
2010,04,08,17,12,10.70
2010,04,08,17,13,10.70
2010,04,08,17,14,10.70
2010,04,08,17,15,10.60
2010,04,08,17,16,10.60
2010,04,08,17,17,10.60
2010,04,08,17,18,10.60
2010,04,08,17,19,10.50
2010,04,08,17,20,10.50
2010,04,08,17,21,10.40
2010,04,08,17,22,10.40
2010,04,08,17,23,10.30
2010,04,08,17,24,10.20
2010,04,08,17,25,10.00
2010,04,08,17,26,9.80
2010,04,08,17,27,9.60
2010,04,08,17,28,9.40
2010,04,08,17,29,9.30
2010,04,08,17,30,9.20
2010,04,08,17,31,9.10
2010,04,08,17,32,9.00
2010,04,08,17,33,8.90
2010,04,08,17,34,8.90
2010,04,08,17,35,8.90
2010,04,08,17,36,8.90
2010,04,08,17,37,8.90
2010,04,08,17,38,8.90
2010,04,08,17,39,8.90
2010,04,08,17,40,8.90
2010,04,08,17,41,8.90
2010,04,08,17,42,9.00
2010,04,08,17,43,8.90
2010,04,08,17,44,8.90
2010,04,08,17,45,9.00
2010,04,08,17,46,9.00
2010,04,08,17,47,9.10
2010,04,08,17,48,9.10
2010,04,08,17,49,9.10
2010,04,08,17,50,9.00
2010,04,08,17,51,9.00
2010,04,08,17,52,9.00
2010,04,08,17,53,9.00
2010,04,08,17,54,9.00
2010,04,08,17,55,8.90
2010,04,08,17,56,8.90
2010,04,08,17,57,8.80
2010,04,08,17,58,8.80
2010,04,08,17,59,8.70